Tracking 19638 objects as of 20-May-2019
HD Live streaming from Space Station
objects crossing your sky now

OPS 5112 (NAVSTAR 2)

Track OPS 5112 (NAVSTAR 2) now!
OPS 5112 (NAVSTAR 2) is classified as:


NORAD ID: 10893
Int'l Code: 1978-047A
Perigee: 18,829.6 km
Apogee: 21,362.2 km
Inclination: 64.2 °
Period: 714.2 minutes
Semi major axis: 26466 km
RCS: 0.518 m2 (medium)
Launch date: May 13, 1978
Source: United States (US)
Launch site: AIR FORCE WESTERN TEST RANGE (AFWTR)
aabbcc
Your satellite tracking list
Your tracking list is empty




NASA's NSSDC Master Catalog

Two Line Element Set (TLE):
1 10893U 78047A   19139.71782097 -.00000071  00000-0  00000+0 0  9999
2 10893  64.2390 355.4968 0478451  49.0289 318.5164  2.01626591301596
Source of the keplerian elements: AFSPC